CW6614 Weather Reports


time (UTC)temp
F
wind
direction
speed
knots
gust
knots
rain 1hr
in
rain 24hr
in
rain mn
in
humidity
%
barometer
mb
20260906233357 62 59 0.0 0.9 0.00 0.04 0.01 76 1016.9
20260906232340 62 200 0.0 0.9 0.00 0.04 0.01 75 1017.0
20260906231326 62 46 0.0 0.9 0.00 0.04 0.01 75 1017.1
20260906230351 63 324 0.0 2.6 0.00 0.04 0.01 74 1017.0
20260906225348 63 74 0.0 2.6 0.00 0.04 0.01 74 1017.1
20260906224326 63 71 0.0 1.7 0.00 0.04 0.01 74 1017.0
20260906223330 63 95 0.0 1.7 0.00 0.04 0.01 75 1017.1
20260906222350 62 67 0.0 0.9 0.00 0.04 0.01 76 1017.2
20260906221328 62 176 0.0 0.9 0.00 0.04 0.01 75 1017.3
20260906220331 62 95 0.0 1.7 0.00 0.04 0.01 76 1017.3
20260906215351 62 77 0.0 0.9 0.00 0.04 0.01 81 1017.3
20260906214330 61 38 0.0 0.9 0.00 0.04 0.01 81 1017.2
20260906213330 60 360 0.0 0.9 0.00 0.04 0.01 84 1017.4
20260906212324 60 329 0.0 0.9 0.00 0.04 0.01 86 1017.4
20260906211330 59 78 0.0 0.9 0.00 0.04 0.01 87 1017.4
20260906210331 59 83 0.0 0.9 0.00 0.04 0.01 87 1017.6
20260906205351 58 80 0.0 0.0 0.00 0.04 0.01 87 1017.6
20260906204349 58 88 0.0 0.0 0.00 0.04 0.01 87 1017.8
20260906203349 58 13 0.0 0.9 0.00 0.04 0.01 86 1017.8
20260906202347 59 111 0.0 3.5 0.00 0.04 0.01 84 1017.9
20260906201330 60 69 0.0 0.9 0.00 0.04 0.01 83 1018.0
20260906200328 60 82 0.0 0.0 0.00 0.04 0.01 81 1018.0
20260906195332 60 30 0.0 0.0 0.00 0.04 0.01 81 1018.1
20260906194335 60 82 0.0 0.9 0.00 0.04 0.01 81 1018.1
20260906193338 60 15 0.0 0.9 0.00 0.04 0.01 80 1018.2
20260906192339 61 65 0.0 0.9 0.00 0.04 0.01 79 1018.2
20260906191344 60 190 0.0 1.7 0.00 0.04 0.01 79 1018.4
20260906190329 60 212 0.0 0.9 0.00 0.04 0.01 80 1018.4
20260906185332 60 226 0.0 0.9 0.00 0.04 0.01 80 1018.5
20260906184328 60 107 0.0 0.9 0.00 0.04 0.01 80 1018.5
20260906183331 60 105 0.0 0.9 0.00 0.04 0.01 79 1018.6
20260906182412 59 284 0.0 0.9 0.00 0.04 0.01 80 1018.8
20260906181328 59 262 0.0 1.7 0.00 0.04 0.01 80 1018.8
20260906180331 59 75 0.0 1.7 0.00 0.04 0.01 80 1018.8
20260906175332 59 217 0.0 1.7 0.00 0.04 0.01 79 1019.0
20260906174334 60 98 0.0 0.9 0.00 0.04 0.01 77 1019.0
20260906173332 60 67 0.0 0.0 0.00 0.04 0.01 78 1018.9
20260906172324 60 59 0.0 0.9 0.00 0.04 0.01 77 1018.9
20260906171330 61 53 0.0 0.9 0.00 0.04 0.01 77 1018.9
20260906170414 61 79 0.0 0.9 0.00 0.04 0.01 77 1019.0
20260906165346 61 47 0.0 0.0 0.00 0.04 0.01 76 1018.9
20260906164344 62 51 0.0 0.0 0.04 0.04 0.01 76 1018.9
20260906163351 62 43 0.0 0.0 0.04 0.04 0.01 76 1018.9
20260906162351 62 90 0.0 0.0 0.04 0.04 0.01 77 1018.9
20260906161347 61 90 0.0 0.0 0.04 0.04 0.01 79 1018.9
20260906160350 59 143 0.0 0.0 0.04 0.04 0.01 86 1019.0
20260906155410 57 220 0.0 0.0 0.04 0.04 0.01 88 1019.0
20260906154325 57 65 0.0 0.0 0.00 0.00 0.00 88 1019.1
20260906153352 57 76 0.0 0.0 0.00 0.00 0.00 88 1019.1
20260906152329 56 40 0.0 0.0 0.00 0.00 0.00 91 1019.3
20260906151330 56 56 0.0 0.9 0.00 0.00 0.00 91 1019.3
20260906150333 56 117 0.0 0.0 0.00 0.00 0.00 92 1019.4
20260906145336 55 215 0.0 0.0 0.00 0.00 0.00 92 1019.4
20260906144332 55 215 0.0 0.0 0.00 0.00 0.00 91 1019.5
20260906143350 55 215 0.0 0.0 0.00 0.00 0.00 91 1019.5
20260906142411 55 215 0.0 0.0 0.00 0.00 0.00 91 1019.7
20260906141350 54 215 0.0 0.0 0.00 0.00 0.00 91 1019.6
20260906140353 54 142 0.0 0.0 0.00 0.00 0.00 91 1019.6
20260906135329 54 103 0.0 0.0 0.00 0.00 0.00 91 1019.8
20260906134351 54 135 0.0 0.0 0.00 0.00 0.00 91 1019.6
20260906133336 54 194 0.0 0.0 0.00 0.00 0.00 91 1019.7
20260906132339 54 92 0.0 0.0 0.00 0.00 0.00 91 1019.8
20260906131331 54 131 0.0 0.0 0.00 0.00 0.00 91 1019.9
20260906130328 54 131 0.0 0.0 0.00 0.00 0.00 90 1020.1
20260906125350 54 69 0.0 0.0 0.00 0.00 0.00 90 1020.2
20260906124350 54 91 0.0 0.0 0.00 0.00 0.00 90 1020.1
20260906123353 54 92 0.0 0.9 0.00 0.00 0.00 90 1020.1
20260906122349 54 91 0.0 0.0 0.00 0.00 0.00 90 1019.7
20260906121346 54 115 0.0 0.0 0.00 0.00 0.00 90 1020.0
20260906120325 54 70 0.0 0.0 0.00 0.00 0.00 90 1020.0
20260906115351 54 46 0.0 0.0 0.00 0.04 0.00 90 1019.8
20260906114348 54 46 0.0 0.0 0.00 0.04 0.00 90 1019.7
20260906113327 54 46 0.0 0.0 0.00 0.04 0.00 90 1019.7
20260906112346 54 34 0.0 0.0 0.00 0.04 0.00 90 1019.9
20260906111349 54 34 0.0 0.0 0.00 0.04 0.00 90 1020.2
20260906110346 54 34 0.0 0.0 0.00 0.04 0.00 90 1020.2
20260906105325 54 51 0.0 0.0 0.00 0.04 0.00 90 1020.3
20260906104409 53 55 0.0 0.0 0.00 0.04 0.00 90 1020.5
20260906103326 53 80 0.0 0.0 0.00 0.04 0.00 90 1020.6
20260906102350 53 86 0.0 0.9 0.00 0.04 0.00 90 1020.6
20260906101328 53 105 0.0 0.0 0.00 0.04 0.00 90 1020.6
20260906100354 53 105 0.0 0.0 0.00 0.04 0.00 90 1020.7
20260906095330 53 105 0.0 0.0 0.00 0.08 0.00 90 1020.7
20260906094332 53 105 0.0 0.0 0.00 0.08 0.00 89 1020.7
20260906093328 53 105 0.0 0.0 0.00 0.08 0.00 89 1020.7
20260906092352 53 105 0.0 0.0 0.00 0.08 0.00 89 1020.8
20260906091351 53 105 0.0 0.0 0.00 0.08 0.00 89 1020.7
20260906090329 53 105 0.0 0.0 0.00 0.08 0.00 89 1020.9
20260906085332 53 74 0.0 0.0 0.00 0.12 0.00 89 1021.1
20260906084328 53 67 0.0 0.0 0.00 0.12 0.00 89 1021.2
20260906083353 54 71 0.0 0.0 0.00 0.12 0.00 89 1021.4
20260906082349 54 71 0.0 0.0 0.00 0.12 0.00 88 1021.4
20260906081349 54 74 0.0 0.0 0.00 0.12 0.00 88 1021.4
20260906080326 54 53 0.0 0.0 0.00 0.12 0.00 88 1021.5
20260906075338 54 55 0.0 0.0 0.00 0.12 0.00 87 1021.5
20260906074327 54 40 0.0 0.0 0.00 0.12 0.00 87 1021.4
20260906073336 54 87 0.0 0.0 0.00 0.12 0.00 86 1021.4
20260906072341 54 26 0.0 0.0 0.00 0.12 0.00 86 1021.5
20260906071325 54 41 0.0 0.0 0.00 0.12 0.00 86 1021.6
20260906070351 54 94 0.0 0.0 0.00 0.12 0.00 86 1021.6
20260906065351 54 30 0.0 0.0 0.00 0.12 0.00 86 1021.7
20260906064329 54 56 0.0 0.0 0.00 0.12 0.00 86 1021.7
20260906063333 54 5 0.0 0.0 0.00 0.12 0.00 86 1021.7
20260906062352 54 37 0.0 0.0 0.00 0.12 0.00 86 1021.6
20260906061350 54 37 0.0 0.0 0.00 0.12 0.00 86 1021.6
20260906060325 54 5 0.0 0.0 0.00 0.12 0.00 86 1021.6
20260906055339 54 16 0.0 0.0 0.00 0.12 0.02 85 1021.7
20260906054327 54 27 0.0 0.9 0.00 0.12 0.02 85 1021.7
20260906053351 54 16 0.0 0.0 0.00 0.12 0.02 85 1021.7
20260906052411 54 88 0.0 0.0 0.00 0.12 0.02 85 1021.8
20260906051349 54 57 0.0 0.0 0.00 0.12 0.02 85 1021.7
20260906050348 54 22 0.0 0.0 0.00 0.12 0.02 85 1021.6
20260906045323 54 24 0.0 0.9 0.00 0.12 0.02 85 1021.7
20260906044350 54 34 0.0 0.9 0.00 0.12 0.02 84 1021.6
20260906043329 54 27 0.0 1.7 0.00 0.12 0.02 84 1021.5
20260906042330 54 59 0.0 0.9 0.00 0.12 0.02 84 1021.4
20260906041329 54 12 0.0 0.0 0.00 0.12 0.02 84 1021.4
20260906040328 54 17 0.0 0.9 0.00 0.12 0.02 84 1021.5
20260906035351 54 11 0.0 0.9 0.00 0.12 0.02 84 1021.5
20260906034350 54 30 0.0 0.0 0.00 0.12 0.02 83 1021.5
20260906033348 54 25 0.0 0.0 0.00 0.12 0.02 83 1021.5
20260906032346 55 31 0.0 0.0 0.00 0.12 0.02 83 1021.5
20260906031344 55 30 0.0 0.0 0.00 0.12 0.02 83 1021.5
20260906030352 55 24 0.0 0.0 0.00 0.12 0.02 82 1021.5
20260906025347 55 18 0.0 0.0 0.00 0.12 0.02 82 1021.6
20260906024326 55 27 0.0 0.0 0.00 0.12 0.02 82 1021.6
20260906023330 55 61 0.0 0.0 0.00 0.12 0.02 82 1021.5
20260906022332 55 23 0.0 0.9 0.00 0.12 0.02 81 1021.5
20260906021324 55 31 0.0 0.0 0.00 0.12 0.02 81 1021.5
20260906020330 55 33 0.0 0.9 0.00 0.12 0.02 81 1021.3
20260906015351 56 32 0.0 0.9 0.00 0.12 0.02 81 1021.3
20260906014349 56 26 0.0 0.9 0.00 0.12 0.02 80 1021.3
20260906013328 56 29 0.0 0.9 0.00 0.12 0.02 80 1021.2
20260906012350 56 26 0.0 0.9 0.00 0.12 0.02 80 1021.1
20260906011328 56 349 0.0 0.0 0.00 0.12 0.02 79 1021.1
20260906010333 56 10 0.0 0.0 0.00 0.12 0.02 79 1021.1
20260906005326 57 10 0.0 0.0 0.00 0.12 0.02 79 1021.1
20260906004352 57 10 0.0 0.0 0.00 0.12 0.02 79 1021.0
20260906003337 57 301 0.0 0.0 0.00 0.12 0.02 79 1021.1
20260906002328 57 302 0.0 0.0 0.00 0.12 0.02 79 1021.1
20260906001325 57 336 0.0 0.0 0.00 0.12 0.02 79 1021.1
20260906000352 57 27 0.0 0.0 0.00 0.12 0.02 78 1021.1
20260905235327 57 336 0.0 0.9 0.00 0.12 0.02 78 1021.0
20260905234329 57 277 0.0 0.0 0.00 0.12 0.02 78 1021.0